GW5874 Weather Reports


time (UTC)temp
C
wind
direction
speed
KPH
gust
KPH
rain 1hr
cm
rain 24hr
cm
rain mn
cm
humidity
%
barometer
mb
20260904032619 24 278 0.0 0.0 0.00 0.00 0.00 78 1014.2
20260904032118 24 277 0.0 0.0 0.00 0.00 0.00 77 1013.9
20260904031618 25 248 0.0 0.0 0.00 0.00 0.00 77 1013.8
20260904031114 25 238 0.0 0.0 0.00 0.00 0.00 77 1013.7
20260904030610 25 270 0.0 0.0 0.00 0.00 0.00 77 1013.8
20260904030105 25 260 0.0 0.0 0.00 0.00 0.00 76 1013.8
20260904025600 25 216 0.0 0.0 0.00 0.00 0.00 76 1013.6
20260904025055 25 245 0.0 0.0 0.00 0.00 0.00 75 1013.7
20260904024551 25 277 0.0 0.0 0.00 0.00 0.00 74 1013.6
20260904024047 25 286 0.0 0.0 0.00 0.00 0.00 74 1013.6
20260904023543 25 261 0.0 0.0 0.00 0.00 0.00 73 1013.4
20260904023038 26 262 0.0 0.0 0.00 0.00 0.00 73 1013.4
20260904022538 26 242 0.0 0.0 0.00 0.00 0.00 72 1013.4
20260904022036 26 265 0.0 0.0 0.00 0.00 0.00 72 1013.1
20260904021531 26 261 0.0 0.0 0.00 0.00 0.00 71 1013.3
20260904021026 26 284 0.0 0.0 0.00 0.00 0.00 71 1013.1
20260904020527 26 244 0.0 0.0 0.00 0.00 0.00 70 1013.2
20260904020027 26 238 0.0 0.0 0.00 0.00 0.00 70 1013.0
20260904015521 26 269 0.0 0.0 0.00 0.00 0.00 69 1012.7
20260904015020 27 184 0.0 0.0 0.00 0.00 0.00 68 1012.6
20260904014514 27 270 0.0 0.0 0.00 0.00 0.00 67 1012.7
20260904014010 27 271 0.0 0.0 0.00 0.00 0.00 66 1012.6
20260904013506 27 270 0.0 0.0 0.00 0.00 0.00 65 1012.5
20260904013003 28 226 0.0 0.0 0.00 0.00 0.00 64 1012.5
20260904012502 28 271 0.0 0.0 0.00 0.00 0.00 63 1012.4
20260904012001 28 266 0.0 0.0 0.00 0.00 0.00 61 1012.2
20260904011456 29 259 0.0 0.0 0.00 0.00 0.00 59 1012.1
20260904010952 30 234 0.0 0.0 0.00 0.00 0.00 58 1012.2
20260904010448 30 274 0.0 0.0 0.00 0.00 0.00 56 1012.0
20260904005943 31 225 1.6 1.6 0.00 0.00 0.00 53 1012.2
20260904005439 31 356 0.0 1.6 0.00 0.00 0.00 52 1012.1
20260904004939 32 227 0.0 0.0 0.00 0.00 0.00 50 1012.1
20260904004435 32 242 0.0 0.0 0.00 0.00 0.00 48 1012.4
20260904003935 32 220 3.2 4.8 0.00 0.00 0.00 48 1012.1
20260904003431 33 167 3.2 4.8 0.00 0.00 0.00 46 1012.0
20260904002926 33 199 4.8 8.0 0.00 0.00 0.00 46 1012.0
20260904002423 33 193 1.6 1.6 0.00 0.00 0.00 45 1012.1
20260904001921 33 212 4.8 6.4 0.00 0.00 0.00 46 1012.1
20260904001417 33 252 0.0 0.0 0.00 0.00 0.00 45 1012.0
20260904000912 34 227 3.2 4.8 0.00 0.00 0.00 43 1012.0
20260904000411 35 239 0.0 1.6 0.00 0.00 0.00 43 1011.9
20260903235906 35 229 3.2 4.8 0.00 0.00 0.00 42 1011.9
20260903235403 35 231 3.2 4.8 0.00 0.00 0.00 41 1011.9
20260903234901 35 202 4.8 6.4 0.00 0.00 0.00 41 1011.9
20260903234358 35 188 6.4 6.4 0.00 0.00 0.00 40 1011.9
20260903233854 35 191 11.3 12.9 0.00 0.00 0.00 40 1011.9
20260903233350 35 233 4.8 8.0 0.00 0.00 0.00 41 1011.8
20260903232849 35 203 8.0 11.3 0.00 0.00 0.00 40 1011.8
20260903232344 35 200 3.2 4.8 0.00 0.00 0.00 41 1011.9
20260903231844 35 215 6.4 6.4 0.00 0.00 0.00 40 1011.8
20260903231339 36 276 1.6 1.6 0.00 0.00 0.00 40 1011.9
20260903230835 35 169 12.9 17.7 0.00 0.00 0.00 40 1011.8
20260903230330 36 188 6.4 8.0 0.00 0.00 0.00 40 1011.8
20260903225826 35 176 3.2 6.4 0.00 0.00 0.00 41 1011.9
20260903225322 35 152 4.8 4.8 0.00 0.00 0.00 41 1012.0
20260903224818 35 163 6.4 8.0 0.00 0.00 0.00 42 1011.8
20260903224314 35 234 3.2 4.8 0.00 0.00 0.00 42 1011.9
20260903223809 35 222 1.6 1.6 0.00 0.00 0.00 41 1011.8
20260903223308 35 215 4.8 6.4 0.00 0.00 0.00 40 1011.8
20260903222803 36 97 3.2 4.8 0.00 0.00 0.00 39 1011.9
20260903222305 36 184 6.4 6.4 0.00 0.00 0.00 38 1011.6
20260903221757 36 65 6.4 8.0 0.00 0.00 0.00 38 1011.6
20260903221255 36 154 8.0 11.3 0.00 0.00 0.00 39 1011.5
20260903220754 36 181 14.5 19.3 0.00 0.00 0.00 38 1011.6
20260903220249 37 160 4.8 4.8 0.00 0.00 0.00 37 1011.7
20260903215747 37 300 3.2 6.4 0.00 0.00 0.00 37 1011.7
20260903215244 36 219 12.9 17.7 0.00 0.00 0.00 37 1011.9
20260903214741 37 156 11.3 16.1 0.00 0.00 0.00 37 1011.9
20260903214239 37 206 8.0 8.0 0.00 0.00 0.00 36 1012.1
20260903213738 37 231 6.4 8.0 0.00 0.00 0.00 36 1012.0
20260903213234 37 203 3.2 4.8 0.00 0.00 0.00 37 1012.0
20260903212730 36 221 12.9 16.1 0.00 0.00 0.00 37 1012.0
20260903212226 35 266 0.0 1.6 0.00 0.00 0.00 40 1012.1
20260903211725 35 190 4.8 6.4 0.00 0.00 0.00 41 1012.2
20260903211222 36 93 11.3 17.7 0.00 0.00 0.00 38 1012.1
20260903210717 36 179 8.0 8.0 0.00 0.00 0.00 38 1012.1
20260903210213 37 223 6.4 8.0 0.00 0.00 0.00 37 1012.3
20260903205712 37 253 4.8 11.3 0.00 0.00 0.00 37 1012.2
20260903205211 37 148 6.4 8.0 0.00 0.00 0.00 37 1012.2
20260903204707 37 197 6.4 11.3 0.00 0.00 0.00 35 1012.5
20260903204203 37 204 8.0 11.3 0.00 0.00 0.00 37 1012.3
20260903203658 36 232 6.4 16.1 0.00 0.00 0.00 36 1012.5
20260903203154 36 140 11.3 16.1 0.00 0.00 0.00 38 1012.3
20260903202648 36 164 6.4 8.0 0.00 0.00 0.00 38 1012.3
20260903202144 37 201 6.4 6.4 0.00 0.00 0.00 37 1012.6
20260903201643 37 192 9.7 12.9 0.00 0.00 0.00 36 1012.6
20260903201143 38 13 8.0 11.3 0.00 0.00 0.00 35 1012.6
20260903200638 38 274 3.2 4.8 0.00 0.00 0.00 34 1012.7
20260903200134 37 202 6.4 8.0 0.00 0.00 0.00 37 1012.8
20260903195630 38 179 4.8 6.4 0.00 0.00 0.00 37 1012.8
20260903195125 37 271 1.6 1.6 0.00 0.00 0.00 36 1012.8
20260903194620 36 216 9.7 16.1 0.00 0.00 0.00 38 1013.0
20260903194120 37 123 12.9 17.7 0.00 0.00 0.00 38 1013.2
20260903193616 37 198 9.7 12.9 0.00 0.00 0.00 36 1013.0
20260903193111 36 72 3.2 6.4 0.00 0.00 0.00 39 1013.0
20260903192608 37 220 9.7 11.3 0.00 0.00 0.00 39 1013.2
20260903192103 37 237 8.0 12.9 0.00 0.00 0.00 38 1013.4
20260903191559 36 164 4.8 8.0 0.00 0.00 0.00 39 1013.3
20260903191054 35 278 4.8 6.4 0.00 0.00 0.00 41 1013.5
20260903190553 36 221 4.8 8.0 0.00 0.00 0.00 40 1013.4
20260903190053 36 184 8.0 8.0 0.00 0.00 0.00 40 1013.5
20260903185548 37 206 6.4 8.0 0.00 0.00 0.00 38 1013.5
20260903185044 36 207 1.6 4.8 0.00 0.00 0.00 39 1013.8
20260903184540 36 209 6.4 8.0 0.00 0.00 0.00 40 1013.6
20260903184035 35 199 3.2 4.8 0.00 0.00 0.00 42 1013.8
20260903183534 36 214 8.0 8.0 0.00 0.00 0.00 41 1014.1
20260903183029 36 259 8.0 16.1 0.00 0.00 0.00 41 1014.1
20260903182527 36 247 0.0 1.6 0.00 0.00 0.00 41 1013.9
20260903182025 36 247 6.4 8.0 0.00 0.00 0.00 41 1014.0
20260903181523 35 257 3.2 6.4 0.00 0.00 0.00 42 1014.0
20260903181023 35 206 8.0 11.3 0.00 0.00 0.00 44 1014.1
20260903180518 35 109 12.9 19.3 0.00 0.00 0.00 43 1014.4
20260903180018 35 206 8.0 8.0 0.00 0.00 0.00 43 1014.4
20260903175517 35 180 3.2 6.4 0.00 0.00 0.00 44 1014.5
20260903175016 35 263 9.7 12.9 0.00 0.00 0.00 44 1014.5
20260903174511 34 227 6.4 6.4 0.00 0.00 0.00 45 1014.4
20260903174006 34 166 8.0 11.3 0.00 0.00 0.00 44 1014.8
20260903173501 35 197 9.7 11.3 0.00 0.00 0.00 43 1014.7
20260903172956 35 201 8.0 8.0 0.00 0.00 0.00 44 1014.8
20260903172452 35 223 6.4 8.0 0.00 0.00 0.00 44 1014.8
20260903171947 34 198 6.4 8.0 0.00 0.00 0.00 45 1014.8
20260903171442 34 201 6.4 8.0 0.00 0.00 0.00 45 1014.7
20260903170937 34 229 17.7 22.5 0.00 0.00 0.00 44 1015.0
20260903170436 34 239 4.8 8.0 0.00 0.00 0.00 46 1014.8
20260903165936 33 200 8.0 11.3 0.00 0.00 0.00 47 1015.0
20260903165430 33 221 3.2 4.8 0.00 0.00 0.00 48 1015.0
20260903164930 33 170 6.4 8.0 0.00 0.00 0.00 48 1015.1
20260903164425 33 204 8.0 11.3 0.00 0.00 0.00 48 1015.3
20260903163925 33 197 9.7 16.1 0.00 0.00 0.00 47 1015.3
20260903163421 33 206 6.4 8.0 0.00 0.00 0.00 49 1015.1
20260903162917 33 188 8.0 8.0 0.00 0.00 0.00 49 1015.3
20260903162414 33 182 6.4 6.4 0.00 0.00 0.00 49 1015.4
20260903161909 33 203 9.7 12.9 0.00 0.00 0.00 50 1015.4
20260903161403 32 161 6.4 12.9 0.00 0.00 0.00 50 1015.4
20260903160900 32 194 12.9 17.7 0.00 0.00 0.00 50 1015.4
20260903160358 32 198 4.8 6.4 0.00 0.00 0.00 52 1015.5
20260903155857 32 120 11.3 17.7 0.00 0.00 0.00 51 1015.5
20260903155353 32 200 8.0 12.9 0.00 0.00 0.00 51 1015.5
20260903154848 32 185 8.0 12.9 0.00 0.00 0.00 52 1015.6
20260903154344 31 210 6.4 8.0 0.00 0.00 0.00 53 1015.7
20260903153839 31 230 8.0 11.3 0.00 0.00 0.00 54 1015.8
20260903153335 31 138 9.7 11.3 0.00 0.00 0.00 53 1015.8
20260903152831 31 254 3.2 6.4 0.00 0.00 0.00 55 1015.7
20260903152327 31 205 8.0 8.0 0.00 0.00 0.00 55 1015.5
20260903151822 30 189 11.3 12.9 0.00 0.00 0.00 57 1015.5
20260903151318 30 129 12.9 12.9 0.00 0.00 0.00 56 1015.6
20260903150817 30 227 9.7 16.1 0.00 0.00 0.00 57 1015.8
20260903150317 30 178 8.0 16.1 0.00 0.00 0.00 57 1015.8
20260903145812 30 171 6.4 6.4 0.00 0.00 0.00 58 1015.7
20260903145307 30 205 8.0 11.3 0.00 0.00 0.00 60 1015.6
20260903144807 30 234 8.0 16.1 0.00 0.00 0.00 59 1015.7
20260903144302 30 182 9.7 16.1 0.00 0.00 0.00 60 1015.8
20260903143757 30 196 6.4 8.0 0.00 0.00 0.00 61 1015.8
20260903143254 30 179 8.0 8.0 0.00 0.00 0.00 62 1015.8
20260903142749 30 200 8.0 11.3 0.00 0.00 0.00 63 1015.8
20260903142245 30 238 4.8 6.4 0.00 0.00 0.00 63 1016.1
20260903141741 28 214 3.2 6.4 0.00 0.00 0.00 65 1016.2
20260903141236 29 184 3.2 4.8 0.00 0.00 0.00 66 1016.3
20260903140731 28 178 3.2 6.4 0.00 0.00 0.00 67 1016.3
20260903140232 28 190 6.4 11.3 0.00 0.00 0.00 68 1016.4
20260903135728 28 214 4.8 6.4 0.00 0.00 0.00 69 1016.4
20260903135223 27 239 3.2 4.8 0.00 0.00 0.00 70 1016.3
20260903134721 27 179 1.6 1.6 0.00 0.00 0.00 72 1016.4
20260903134218 27 188 6.4 8.0 0.00 0.00 0.00 72 1016.5
20260903133715 26 202 4.8 4.8 0.00 0.00 0.00 73 1016.2
20260903133211 26 168 3.2 4.8 0.00 0.00 0.00 74 1016.4
20260903132712 26 172 4.8 4.8 0.00 0.00 0.00 75 1016.2
20260903132212 25 196 4.8 6.4 0.00 0.00 0.00 77 1016.2
20260903131707 25 211 4.8 6.4 0.00 0.00 0.00 78 1016.4
20260903131201 25 197 1.6 4.8 0.00 0.00 0.00 80 1016.3
20260903130656 23 208 1.6 1.6 0.00 0.00 0.00 83 1016.3
20260903130156 22 206 0.0 1.6 0.00 0.00 0.00 89 1016.2
20260903125654 21 208 1.6 1.6 0.00 0.00 0.00 92 1016.4
20260903125149 21 226 1.6 1.6 0.00 0.00 0.00 95 1016.3
20260903124644 21 251 0.0 0.0 0.00 0.00 0.00 95 1016.3
20260903124143 20 243 0.0 0.0 0.00 0.00 0.00 95 1016.1
20260903123643 20 250 0.0 0.0 0.00 0.00 0.00 95 1016.3
20260903123142 20 255 0.0 0.0 0.00 0.00 0.00 95 1016.1
20260903122641 20 255 0.0 0.0 0.00 0.00 0.00 95 1016.1
20260903122136 20 276 0.0 0.0 0.00 0.00 0.00 95 1015.8
20260903121635 20 276 0.0 0.0 0.00 0.00 0.00 95 1015.9
20260903121131 20 276 0.0 0.0 0.00 0.00 0.00 95 1015.9
20260903120630 20 276 0.0 0.0 0.00 0.00 0.00 95 1015.7
20260903120125 20 268 0.0 0.0 0.00 0.00 0.00 95 1015.8
20260903115623 20 274 0.0 0.0 0.00 0.00 0.00 95 1015.6
20260903115118 20 283 0.0 0.0 0.00 0.00 0.00 95 1015.7
20260903114614 20 287 0.0 0.0 0.00 0.00 0.00 95 1015.5
20260903114109 20 257 0.0 0.0 0.00 0.00 0.00 94 1015.7
20260903113604 20 276 0.0 0.0 0.00 0.00 0.00 94 1015.7
20260903113101 20 275 0.0 0.0 0.00 0.00 0.00 94 1015.8
20260903112557 20 286 0.0 0.0 0.00 0.00 0.00 94 1015.6
20260903112056 20 277 0.0 0.0 0.00 0.00 0.00 94 1015.7
20260903111555 20 277 0.0 0.0 0.00 0.00 0.00 94 1015.7
20260903111051 20 280 0.0 0.0 0.00 0.00 0.00 94 1015.9
20260903110547 20 280 0.0 0.0 0.00 0.00 0.00 94 1015.6
20260903110042 20 272 0.0 0.0 0.00 0.00 0.00 94 1015.6
20260903105537 20 264 0.0 0.0 0.00 0.00 0.00 94 1015.7
20260903105032 20 263 0.0 0.0 0.00 0.00 0.00 94 1015.7
20260903104531 20 272 0.0 0.0 0.00 0.00 0.00 93 1015.5
20260903104027 20 254 0.0 0.0 0.00 0.00 0.00 93 1015.5
20260903103523 20 277 0.0 0.0 0.00 0.00 0.00 93 1015.4
20260903103019 20 266 0.0 0.0 0.00 0.00 0.00 93 1015.5
20260903102514 20 271 0.0 0.0 0.00 0.00 0.00 93 1015.6
20260903102013 20 278 0.0 0.0 0.00 0.00 0.00 93 1015.6
20260903101508 20 288 1.6 1.6 0.00 0.00 0.00 93 1015.5
20260903101004 21 251 0.0 0.0 0.00 0.00 0.00 92 1015.7
20260903100459 21 274 0.0 0.0 0.00 0.00 0.00 92 1015.6
20260903095956 21 265 0.0 0.0 0.00 0.00 0.00 92 1015.6
20260903095456 21 263 0.0 0.0 0.00 0.00 0.00 92 1015.6
20260903094951 21 246 0.0 0.0 0.00 0.00 0.00 91 1015.6
20260903094450 21 275 0.0 0.0 0.00 0.00 0.00 91 1015.6
20260903093947 21 273 0.0 0.0 0.00 0.00 0.00 91 1015.4
20260903093441 21 268 0.0 0.0 0.00 0.00 0.00 91 1015.4
20260903092937 21 287 0.0 0.0 0.00 0.00 0.00 91 1015.4
20260903092437 21 268 0.0 0.0 0.00 0.00 0.00 91 1015.4
20260903091936 21 270 0.0 0.0 0.00 0.00 0.00 90 1015.2
20260903091434 21 270 0.0 0.0 0.00 0.00 0.00 90 1015.4
20260903090929 21 270 0.0 0.0 0.00 0.00 0.00 90 1015.2
20260903090425 21 270 0.0 0.0 0.00 0.00 0.00 90 1015.3
20260903085924 21 270 0.0 0.0 0.00 0.00 0.00 90 1015.4
20260903085422 21 267 0.0 0.0 0.00 0.00 0.00 89 1015.3
20260903084922 21 271 0.0 0.0 0.00 0.00 0.00 89 1015.2
20260903084421 22 265 0.0 0.0 0.00 0.00 0.00 88 1015.3
20260903083916 22 265 0.0 0.0 0.00 0.00 0.00 87 1015.4
20260903083412 22 280 0.0 0.0 0.00 0.00 0.00 86 1015.3
20260903082911 22 274 0.0 0.0 0.00 0.00 0.00 86 1015.2
20260903082406 22 273 0.0 0.0 0.00 0.00 0.00 86 1015.1
20260903081901 22 259 0.0 0.0 0.00 0.00 0.00 85 1015.2
20260903081356 22 259 0.0 0.0 0.00 0.00 0.00 85 1015.0
20260903080853 22 271 0.0 0.0 0.00 0.00 0.00 84 1014.9
20260903080349 22 265 0.0 0.0 0.00 0.00 0.00 83 1014.8
20260903075849 22 263 0.0 0.0 0.00 0.00 0.00 83 1014.8
20260903075345 22 262 0.0 0.0 0.00 0.00 0.00 83 1014.9
20260903074845 23 269 0.0 0.0 0.00 0.00 0.00 82 1015.0
20260903074344 23 243 0.0 0.0 0.00 0.00 0.00 82 1014.9
20260903073840 23 234 1.6 1.6 0.00 0.00 0.00 82 1014.9
20260903073335 23 272 0.0 0.0 0.00 0.00 0.00 82 1015.0
20260903072831 23 238 0.0 0.0 0.00 0.00 0.00 82 1015.0
20260903072327 22 240 0.0 0.0 0.00 0.00 0.00 84 1014.9
20260903071824 22 238 0.0 0.0 0.00 0.00 0.00 84 1014.9
20260903071319 22 257 0.0 0.0 0.00 0.00 0.00 83 1015.0
20260903070814 23 273 0.0 0.0 0.00 0.00 0.00 83 1015.0
20260903070309 22 275 0.0 0.0 0.00 0.00 0.00 83 1014.9
20260903065804 22 264 0.0 0.0 0.00 0.00 0.00 83 1014.9
20260903065306 22 263 0.0 0.0 0.00 0.00 0.00 84 1014.7
20260903064802 22 266 0.0 0.0 0.00 0.00 0.00 85 1014.8
20260903064258 22 266 0.0 0.0 0.00 0.00 0.00 85 1014.9
20260903063754 22 246 0.0 0.0 0.00 0.00 0.00 85 1015.0
20260903063249 22 266 0.0 0.0 0.00 0.00 0.00 85 1014.8
20260903062745 22 276 0.0 0.0 0.00 0.00 0.00 85 1014.8
20260903062244 22 275 0.0 0.0 0.00 0.00 0.00 85 1015.0
20260903061741 22 266 0.0 0.0 0.00 0.00 0.00 85 1014.8
20260903061239 22 294 0.0 0.0 0.00 0.00 0.00 85 1014.9
20260903060736 22 271 0.0 0.0 0.00 0.00 0.00 84 1014.8
20260903060235 22 267 0.0 0.0 0.00 0.00 0.00 83 1015.0
20260903055733 23 262 0.0 0.0 0.00 0.00 0.00 84 1014.9
20260903055231 22 248 0.0 0.0 0.00 0.00 0.00 84 1014.6
20260903054726 22 262 0.0 0.0 0.00 0.00 0.00 84 1015.0
20260903054221 22 256 0.0 0.0 0.00 0.00 0.00 84 1014.6
20260903053718 22 250 0.0 0.0 0.00 0.00 0.00 84 1014.7
20260903053213 23 254 0.0 0.0 0.00 0.00 0.00 83 1014.6
20260903052709 23 251 0.0 0.0 0.00 0.00 0.00 83 1014.9
20260903052204 23 279 0.0 0.0 0.00 0.00 0.00 83 1014.7
20260903051705 23 263 0.0 0.0 0.00 0.00 0.00 83 1014.8
20260903051200 23 272 0.0 0.0 0.00 0.00 0.00 82 1014.9
20260903050656 23 268 0.0 0.0 0.00 0.00 0.00 82 1014.8
20260903050154 23 268 0.0 0.0 0.00 0.00 0.00 81 1014.8
20260903045649 23 268 0.0 0.0 0.00 0.00 0.00 80 1014.8
20260903045146 23 277 0.0 0.0 0.00 0.00 0.00 80 1014.6
20260903044642 23 284 0.0 0.0 0.00 0.00 0.00 80 1014.7
20260903044137 23 264 0.0 0.0 0.00 0.00 0.00 79 1014.6
20260903043634 23 282 0.0 0.0 0.00 0.00 0.00 79 1014.6
20260903043133 23 282 0.0 0.0 0.00 0.00 0.00 79 1014.6
20260903042632 23 269 0.0 0.0 0.00 0.00 0.00 79 1014.8
20260903042127 23 265 0.0 0.0 0.00 0.00 0.00 79 1014.5
20260903041624 23 302 0.0 0.0 0.00 0.00 0.00 78 1014.5
20260903041120 23 243 0.0 0.0 0.00 0.00 0.00 78 1014.5
20260903040618 23 271 0.0 0.0 0.00 0.00 0.00 78 1014.8
20260903040115 23 266 0.0 0.0 0.00 0.00 0.00 78 1014.7
20260903035610 24 256 0.0 0.0 0.00 0.00 0.00 77 1014.8
20260903035106 24 272 0.0 0.0 0.00 0.00 0.00 77 1014.6
20260903034600 24 252 0.0 0.0 0.00 0.00 0.00 77 1014.5
20260903034056 24 269 0.0 0.0 0.00 0.00 0.00 76 1014.9
20260903033551 24 264 0.0 0.0 0.00 0.00 0.00 76 1014.7
20260903033046 24 269 0.0 0.0 0.00 0.00 0.00 75 1014.6